YZ-2 R/B, 41840

Orbit data source: Space-Track

YZ-2 R/B, 41840 is space debris in GEO originally from a launch on Thu, 03 Nov 2016 UTC launched from the Wenchang Satellite Launch Center (WSC). Debris objects in space refer to the collection of defunct objects orbiting the Earth. Examples of debris include non-operational satellites, rocket bodies, and fragments generated from explosions, collisions, or faulty payload assembly.

Loading next visibility...
YZ-2 R/B details
Identifier
41840, 2016-065C
Orbit
GEO
Last TLE update1 day ago
Origin
Flag of CNCNSA (CN / PRC)
ManufacturerCALT
MissionSpacecraft
Bus & MotorYZ-2, Unknown motor
Mass~2,000 kg wet, ~2,000 kg dry
Launch date (UTC)
2016-11-03 (8 years ago)
Launch vehicleUnknown
Launch site
Wenchang Satellite Launch Center (WSC)
Object type
Payload
Rocket body
Debris
Shape & HBRCyl, 4 m
Radar Cross Section17.609 m², Large (>1 m²)

Expand to show TLE details & history

TLE from 1 day ago
0 YZ-2 R/B
1 41840U 16065C   24360.27032806 -.00000100  00000-0  00000-0 0  9990
2 41840   7.9242  72.3286 0478361 217.9937 138.3999  0.93473464 27818
Epoch: 2024-12-25T06:29Z
Definitive object data (Epoch: 2024-12-25T06:29:16.344Z)
Latitude-0.00001°
Longitude-119.38362°
Altitude39,439.408 km
Speed2.895 km/s
True Right ascension04h 48m 48s
True Declination0° 00' 00"
Sunlit
Object was in daylight at TLE epoch
Visualization TLE readout
Latitude7.35665°
Longitude-51.76353°
Altitude39,619.301 km
Speed2.883 km/s
Apparent Right ascension08h 58m 29s
Apparent Declination2° 25' 34"
Sunlit
Object is in daylight
Visualization observer readout
Local Sidereal Time12:48:39
Azimuth249.714° W
Elevation26.005°
Doppler factor1
Orbital elements
Apogee altitude39,921.699 km
Perigee altitude35,694.314 km
Semi-major axis44,186.144 km
Eccentricity0.0478361
Inclination7.9242°
RAAN72.3286°
Arg. of periapsis217.9937°
True anomaly141.88114°
Mean anomaly138.3999°
Eccentric anomaly140.15594°
Mean motion0.23368 °/min
BSTARUnknown
Orbital period1540.59 mins
Loading historical data...
41840 neighbors
Authenticating...
Loading maneuver chart data...
Loading historical data...
Loading historical data...
Loading historical data...
Loading historical data...
Loading historical data...
Loading historical data...
Loading historical data...
Other satellites on launch #65 in the year 2016 (2016-11-03 UTC)

YZ-2 R/B Visibility forecast

Observer location: undefined°, undefined

Span
Click to sort rows by Start time (UTC) header in descending order
Start Az.
Max El. time (UTC)
Max El. Az.
Max El.
End time (UTC)
End Az.
642 mins2024-12-26 13:26:58.257Z249.699° W2024-12-26 13:26:58.257Z249.699° W23.669°2024-12-27 00:08:58.257Z245.905° WSW
|